Hovedside
METAR-TAF:

METAR-TAF

Lufthavner :

Hasvik, Norge

Hasvik lufthavn

breddegrad: 70-29N, lengdegrad: 022-09E, høyde over havet: 10 m

Gjeldene værobservasjon

Denne rapporten ble laget for 1 time og 8 minutter siden, klokken 17:50 UTC
Vind 5 kt fra Sør-sørøst
Temperatur 9°C
Luftfuktighet 71%
Trykk 1025 hPa
Sikt 10 km eller mer
ingen skyer under 1500 m og ingen bygeskyer

METAR: ENHK 221750Z 15005KT CAVOK 09/04 Q1025

Tid: 20:58 (18:58 UTC)


TAF: fraværende

Værobservasjoner og værvarsel for over 4000 flyplasser (METAR- og TAF-rapporter).

Tilgjengelige stasjoner er representert av de røde og gule prikkene på kartet.

Hold musepekeren over prikken for å se navnet på stasjonen.

Klikk så for å se værobservasjoner og -varsler.

For å forandre kartet kan du klikke på den grønne knappen med svart kryss for å zoome inn, på den grønne knappen med strek for å zoome ut, eller på de grønne pilene for å se tilstøtende kart.


METAR-TAF: